Flag for Canada Weather past 2 weeks in Montreal, Quebec, Canada

Now
73 °F

Passing clouds.


Feels Like: 74 °F
Forecast: 69 / 85 °F
Wind: 9 mph from Southwest

Location: Montreal - Pierre Elliot Trudeau International Aiport

Current Time: Sep 1, 2015 at 11:07:07 PM

Latest Report: Sep 1, 2015 at 10:00 PM


Visibility: 15 mi

Pressure: 29.98 "Hg

Humidity: 78%

Dew point: 66 °F

Location of MontrealLocation

Historic Weather in Montreal — Graph

°F

Montreal temperature yesterday

Maximum temperature yesterday: 77 °F (at 2:00 PM)
Minimum temperature yesterday: 66 °F (at 3:00 AM)
Average temperature yesterday: 71 °F

Past Weeks' High & Low Weather Summary

 TemperatureHumidityPressure
High88 °F (Aug 18, 3:00 PM)100% (Aug 19, 5:00 AM)30.17 "Hg (Aug 19, 5:00 AM)
Low57 °F (Aug 28, 4:00 AM)39% (Aug 23, 6:00 PM)29.75 "Hg (Aug 24, 4:00 PM)
Average71 °F73%29.98 "Hg
* Reported Aug 17 10:00 PM — Sep 1 10:00 PM, Montreal, Weather by CustomWeather, © 2015

Note: Actual official high and low records may vary slightly from our data, if they occured in-between our weather recording intervals... More about our weather records

Advertising

Montreal weather history for previous 24 hours

 ConditionsComfort  
Time TempWeatherWind HumidityBarometerVisibility
10:00 PM
Tue, Sep 1
73 °FPassing clouds.9 mph78%29.98 "Hg15 mi
9:00 PM75 °FPassing clouds.8 mph78%29.98 "Hg15 mi
8:00 PM75 °FPassing clouds.6 mph74%29.98 "Hg15 mi
7:00 PM79 °FPassing clouds.7 mph65%29.98 "Hg15 mi
6:00 PM81 °FPassing clouds.14 mph58%29.98 "Hg15 mi
5:00 PM81 °FPassing clouds.10 mph62%29.98 "Hg15 mi
4:00 PM81 °FPartly sunny.12 mph58%29.98 "Hg15 mi
3:00 PM79 °FPartly sunny.10 mph61%30.00 "Hg15 mi
2:00 PM77 °FPartly sunny.12 mph65%30.02 "Hg15 mi
1:00 PM75 °FScattered clouds.10 mph69%30.03 "Hg15 mi
12:00 PM75 °FScattered clouds.8 mph65%30.04 "Hg15 mi
11:00 AM73 °FPassing clouds.8 mph57%30.06 "Hg15 mi
10:00 AM72 °FPassing clouds.7 mph57%30.07 "Hg15 mi
9:00 AM70 °FPassing clouds.6 mph64%30.06 "Hg15 mi
8:00 AM64 °FPassing clouds.3 mph83%30.07 "Hg15 mi
7:00 AM59 °FPassing clouds.2 mph94%30.06 "Hg15 mi
6:00 AM59 °FPassing clouds.2 mph100%30.04 "Hg15 mi
5:00 AM61 °FClear.2 mph94%30.03 "Hg15 mi
4:00 AM61 °FClear.3 mph100%30.02 "Hg15 mi
3:00 AM61 °FClear.5 mph100%30.01 "Hg15 mi
2:00 AM63 °FClear.3 mph94%30.00 "Hg15 mi
1:00 AM66 °FPassing clouds.No wind88%30.00 "Hg15 mi
12:00 AM68 °FPassing clouds.6 mph83%29.99 "Hg15 mi
11:00 PM
Mon, Aug 31
70 °FPassing clouds.6 mph78%29.98 "Hg15 mi
Weather by CustomWeather, © 2015

See weather overviewHow to use our weather pages